WXM80 ListenWXM80 Stop

You find our weather info also at:

UK Metoffice

WeatherCloud

Weather Underground

Northeastern Weather Network

AWEKAS

Citizen Weather Observer Program (CWOP)

HAMweather, WeatherForYou, PWS Weather


Weather Underground History page Text

Daily Summary for June 5, 2017 Units:  Both    English   Metric
« Previous Day
Next Day »
Daily Weekly Monthly Yearly Custom
  High: Low: Average:
Temperature: 63.0 °F /  17.2 °C 57.5 °F /  14.2 °C 60.3 °F /  15.7 °C
Dew Point: 61.2 °F /  16.2 °C 55.5 °F /  13.1 °C 59.1 °F /  15.1 °C
Humidity: 97 % 93 % 96 %
Wind Speed: 7.0 mph /  11.3 km/h - 1.4 mph /  2.3 km/h
Wind Gust: 11.5 mph /  18.5 km/h - -
Wind:- - ENE
Pressure: 29.83 in /  1010 hPa 29.70 in /  1005.6 hPa -
Precipitation: 0.05 in /  1.27 mm    
Historical Graphs
 
 
Tabular Data for June 5, 2017
Time Temperature Dew Point Pressure Wind Wind Speed Wind Gust Humidity Rainfall Rate (Hourly)
00:02 57.6 °F /  14.2 °C 55.6 °F /  13.1 °C 29.80 in /  1009 hPa Calm     93 % 0.00 in /  0 mm
00:07 57.5 °F /  14.2 °C 55.5 °F /  13.1 °C 29.80 in /  1009 hPa Calm     93 % 0.00 in /  0 mm
00:12 57.5 °F /  14.2 °C 55.5 °F /  13.1 °C 29.80 in /  1009 hPa Calm     93 % 0.00 in /  0 mm
00:17 57.5 °F /  14.2 °C 55.8 °F /  13.2 °C 29.81 in /  1009.4 hPa NE 0.1 mph /  0.2 km/h 1.0 mph /  1.6 km/h 94 % 0.00 in /  0 mm
00:22 57.6 °F /  14.2 °C 55.9 °F /  13.3 °C 29.83 in /  1010 hPa North 2.7 mph /  4.3 km/h 5.0 mph /  8 km/h 94 % 0.00 in /  0 mm
00:27 57.7 °F /  14.3 °C 56.0 °F /  13.3 °C 29.82 in /  1009.7 hPa NNE 0.5 mph /  0.8 km/h 3.5 mph /  5.6 km/h 94 % 0.00 in /  0 mm
00:32 57.8 °F /  14.3 °C 56.1 °F /  13.4 °C 29.81 in /  1009.4 hPa NE 0.3 mph /  0.5 km/h 3.5 mph /  5.6 km/h 94 % 0.01 in /  0.25 mm
00:37 57.9 °F /  14.4 °C 56.5 °F /  13.6 °C 29.80 in /  1009 hPa Calm     95 % 0.01 in /  0.25 mm
00:42 58.1 °F /  14.5 °C 56.7 °F /  13.7 °C 29.80 in /  1009 hPa Calm     95 % 0.01 in /  0.25 mm
00:47 58.2 °F /  14.6 °C 56.8 °F /  13.8 °C 29.81 in /  1009.4 hPa Calm   1.2 mph /  1.9 km/h 95 % 0.02 in /  0.51 mm
00:52 58.2 °F /  14.6 °C 56.8 °F /  13.8 °C 29.80 in /  1009 hPa Calm     95 % 0.03 in /  0.76 mm
00:57 58.3 °F /  14.6 °C 56.9 °F /  13.8 °C 29.80 in /  1009 hPa Calm     95 % 0.03 in /  0.76 mm
01:03 58.3 °F /  14.6 °C 56.9 °F /  13.8 °C 29.80 in /  1009 hPa NE 0.8 mph /  1.3 km/h 1.2 mph /  1.9 km/h 95 % 0.03 in /  0.76 mm
01:08 58.4 °F /  14.7 °C 57.0 °F /  13.9 °C 29.79 in /  1008.7 hPa NE 0.1 mph /  0.2 km/h 1.2 mph /  1.9 km/h 95 % 0.03 in /  0.76 mm
01:13 58.4 °F /  14.7 °C 57.0 °F /  13.9 °C 29.79 in /  1008.7 hPa Calm     95 % 0.03 in /  0.76 mm
01:18 58.4 °F /  14.7 °C 57.0 °F /  13.9 °C 29.80 in /  1009 hPa NE 0.1 mph /  0.2 km/h 2.3 mph /  3.7 km/h 95 % 0.03 in /  0.76 mm
01:23 58.4 °F /  14.7 °C 57.0 °F /  13.9 °C 29.80 in /  1009 hPa Calm     95 % 0.03 in /  0.76 mm
01:28 58.4 °F /  14.7 °C 57.0 °F /  13.9 °C 29.79 in /  1008.7 hPa Calm     95 % 0.03 in /  0.76 mm
01:33 58.4 °F /  14.7 °C 57.0 °F /  13.9 °C 29.79 in /  1008.7 hPa Calm     95 % 0.02 in /  0.51 mm
01:38 58.4 °F /  14.7 °C 57.0 °F /  13.9 °C 29.78 in /  1008.4 hPa Calm     95 % 0.02 in /  0.51 mm
01:43 58.4 °F /  14.7 °C 57.0 °F /  13.9 °C 29.77 in /  1008 hPa Calm     95 % 0.02 in /  0.51 mm
01:48 58.3 °F /  14.6 °C 56.9 °F /  13.8 °C 29.77 in /  1008 hPa NE 0.2 mph /  0.3 km/h 1.0 mph /  1.6 km/h 95 % 0.01 in /  0.25 mm
01:50 58.4 °F /  14.7 °C 57.0 °F /  13.9 °C 29.77 in /  1008 hPa Calm   1.0 mph /  1.6 km/h 95 % 0.00 in /  0 mm
01:56 58.3 °F /  14.6 °C 56.9 °F /  13.8 °C 29.77 in /  1008 hPa Calm   2.0 mph /  3.2 km/h 95 % 0.00 in /  0 mm
02:01 58.3 °F /  14.6 °C 56.9 °F /  13.8 °C 29.76 in /  1007.7 hPa Calm     95 % 0.00 in /  0 mm
02:06 58.2 °F /  14.6 °C 56.8 °F /  13.8 °C 29.76 in /  1007.7 hPa Calm   1.2 mph /  1.9 km/h 95 % 0.00 in /  0 mm
02:11 58.2 °F /  14.6 °C 56.8 °F /  13.8 °C 29.76 in /  1007.7 hPa Calm     95 % 0.00 in /  0 mm
02:16 58.2 °F /  14.6 °C 56.8 °F /  13.8 °C 29.76 in /  1007.7 hPa Calm   2.3 mph /  3.7 km/h 95 % 0.00 in /  0 mm
02:21 58.2 °F /  14.6 °C 56.8 °F /  13.8 °C 29.76 in /  1007.7 hPa Calm     95 % 0.00 in /  0 mm
02:26 58.2 °F /  14.6 °C 56.8 °F /  13.8 °C 29.76 in /  1007.7 hPa Calm     95 % 0.00 in /  0 mm
02:31 58.2 °F /  14.6 °C 56.8 °F /  13.8 °C 29.76 in /  1007.7 hPa Calm   1.0 mph /  1.6 km/h 95 % 0.00 in /  0 mm
02:36 58.2 °F /  14.6 °C 56.8 °F /  13.8 °C 29.76 in /  1007.7 hPa NE 0.2 mph /  0.3 km/h 1.2 mph /  1.9 km/h 95 % 0.00 in /  0 mm
02:41 58.3 °F /  14.6 °C 56.9 °F /  13.8 °C 29.76 in /  1007.7 hPa North 0.2 mph /  0.3 km/h 2.3 mph /  3.7 km/h 95 % 0.00 in /  0 mm
02:46 58.3 °F /  14.6 °C 56.9 °F /  13.8 °C 29.75 in /  1007.3 hPa NE 1.6 mph /  2.6 km/h 4.0 mph /  6.4 km/h 95 % 0.00 in /  0 mm
02:51 58.4 °F /  14.7 °C 57.3 °F /  14.1 °C 29.75 in /  1007.3 hPa NE 0.8 mph /  1.3 km/h 3.5 mph /  5.6 km/h 96 % 0.01 in /  0.25 mm
02:56 58.5 °F /  14.7 °C 57.4 °F /  14.1 °C 29.75 in /  1007.3 hPa ENE 1.5 mph /  2.4 km/h 3.5 mph /  5.6 km/h 96 % 0.01 in /  0.25 mm
03:01 58.6 °F /  14.8 °C 57.5 °F /  14.2 °C 29.75 in /  1007.3 hPa Calm     96 % 0.01 in /  0.25 mm
03:06 58.6 °F /  14.8 °C 57.5 °F /  14.2 °C 29.75 in /  1007.3 hPa Calm     96 % 0.01 in /  0.25 mm
03:11 58.7 °F /  14.8 °C 57.6 °F /  14.2 °C 29.74 in /  1007 hPa Calm     96 % 0.01 in /  0.25 mm
03:16 58.7 °F /  14.8 °C 57.6 °F /  14.2 °C 29.74 in /  1007 hPa Calm     96 % 0.01 in /  0.25 mm
03:21 58.7 °F /  14.8 °C 57.6 °F /  14.2 °C 29.74 in /  1007 hPa Calm   1.2 mph /  1.9 km/h 96 % 0.01 in /  0.25 mm
03:26 58.7 °F /  14.8 °C 57.6 °F /  14.2 °C 29.74 in /  1007 hPa Calm     96 % 0.01 in /  0.25 mm
03:31 58.7 °F /  14.8 °C 57.6 °F /  14.2 °C 29.74 in /  1007 hPa Calm     96 % 0.01 in /  0.25 mm
03:37 58.7 °F /  14.8 °C 57.6 °F /  14.2 °C 29.74 in /  1007 hPa Calm     96 % 0.01 in /  0.25 mm
03:42 58.7 °F /  14.8 °C 57.6 °F /  14.2 °C 29.74 in /  1007 hPa Calm     96 % 0.01 in /  0.25 mm
03:47 58.7 °F /  14.8 °C 57.6 °F /  14.2 °C 29.74 in /  1007 hPa Calm     96 % 0.01 in /  0.25 mm
03:52 58.7 °F /  14.8 °C 57.6 °F /  14.2 °C 29.73 in /  1006.7 hPa NE 0.3 mph /  0.5 km/h 1.2 mph /  1.9 km/h 96 % 0.00 in /  0 mm
03:57 58.7 °F /  14.8 °C 57.6 °F /  14.2 °C 29.73 in /  1006.7 hPa Calm     96 % 0.01 in /  0.25 mm
04:02 58.7 °F /  14.8 °C 57.6 °F /  14.2 °C 29.72 in /  1006.3 hPa NE 0.2 mph /  0.3 km/h 2.3 mph /  3.7 km/h 96 % 0.01 in /  0.25 mm
04:07 58.7 °F /  14.8 °C 57.6 °F /  14.2 °C 29.73 in /  1006.7 hPa Calm     96 % 0.01 in /  0.25 mm
04:12 58.7 °F /  14.8 °C 57.6 °F /  14.2 °C 29.73 in /  1006.7 hPa Calm     96 % 0.01 in /  0.25 mm
04:17 58.7 °F /  14.8 °C 57.6 °F /  14.2 °C 29.73 in /  1006.7 hPa Calm     96 % 0.01 in /  0.25 mm
04:22 58.7 °F /  14.8 °C 57.6 °F /  14.2 °C 29.73 in /  1006.7 hPa Calm     96 % 0.01 in /  0.25 mm
04:27 58.7 °F /  14.8 °C 57.6 °F /  14.2 °C 29.73 in /  1006.7 hPa Calm     96 % 0.01 in /  0.25 mm
04:32 58.7 °F /  14.8 °C 57.6 °F /  14.2 °C 29.72 in /  1006.3 hPa Calm     96 % 0.01 in /  0.25 mm
04:37 58.7 °F /  14.8 °C 57.6 °F /  14.2 °C 29.72 in /  1006.3 hPa Calm     96 % 0.01 in /  0.25 mm
04:42 58.7 °F /  14.8 °C 57.6 °F /  14.2 °C 29.72 in /  1006.3 hPa Calm     96 % 0.01 in /  0.25 mm
04:47 58.7 °F /  14.8 °C 57.6 °F /  14.2 °C 29.72 in /  1006.3 hPa Calm     96 % 0.01 in /  0.25 mm
04:52 58.8 °F /  14.9 °C 57.7 °F /  14.3 °C 29.72 in /  1006.3 hPa Calm     96 % 0.01 in /  0.25 mm
04:57 58.8 °F /  14.9 °C 57.7 °F /  14.3 °C 29.72 in /  1006.3 hPa Calm     96 % 0.00 in /  0 mm
05:02 58.8 °F /  14.9 °C 57.7 °F /  14.3 °C 29.72 in /  1006.3 hPa Calm     96 % 0.00 in /  0 mm
05:07 58.8 °F /  14.9 °C 57.7 °F /  14.3 °C 29.72 in /  1006.3 hPa Calm     96 % 0.00 in /  0 mm
05:12 58.9 °F /  14.9 °C 57.8 °F /  14.3 °C 29.72 in /  1006.3 hPa Calm     96 % 0.00 in /  0 mm
05:17 58.9 °F /  14.9 °C 57.8 °F /  14.3 °C 29.71 in /  1006 hPa Calm     96 % 0.00 in /  0 mm
05:22 59.0 °F /  15 °C 57.9 °F /  14.4 °C 29.71 in /  1006 hPa Calm     96 % 0.00 in /  0 mm
05:27 59.0 °F /  15 °C 57.9 °F /  14.4 °C 29.71 in /  1006 hPa Calm     96 % 0.00 in /  0 mm
05:32 59.1 °F /  15.1 °C 58.0 °F /  14.4 °C 29.71 in /  1006 hPa Calm     96 % 0.00 in /  0 mm
05:37 59.1 °F /  15.1 °C 58.0 °F /  14.4 °C 29.71 in /  1006 hPa NE 0.6 mph /  1 km/h 2.3 mph /  3.7 km/h 96 % 0.00 in /  0 mm
05:42 59.1 °F /  15.1 °C 58.0 °F /  14.4 °C 29.71 in /  1006 hPa Calm     96 % 0.00 in /  0 mm
05:47 59.1 °F /  15.1 °C 58.0 °F /  14.4 °C 29.72 in /  1006.3 hPa Calm     96 % 0.00 in /  0 mm
05:49 59.2 °F /  15.1 °C 58.1 °F /  14.5 °C 29.71 in /  1006 hPa Calm   1.2 mph /  1.9 km/h 96 % 0.00 in /  0 mm
05:54 59.2 °F /  15.1 °C 58.1 °F /  14.5 °C 29.71 in /  1006 hPa Calm   2.3 mph /  3.7 km/h 96 % 0.00 in /  0 mm
05:59 59.3 °F /  15.2 °C 58.4 °F /  14.7 °C 29.71 in /  1006 hPa Calm   2.3 mph /  3.7 km/h 97 % 0.00 in /  0 mm
06:04 59.4 °F /  15.2 °C 58.5 °F /  14.7 °C 29.72 in /  1006.3 hPa Calm     97 % 0.00 in /  0 mm
06:09 59.5 °F /  15.3 °C 58.6 °F /  14.8 °C 29.72 in /  1006.3 hPa Calm   1.2 mph /  1.9 km/h 97 % 0.00 in /  0 mm
06:14 59.5 °F /  15.3 °C 58.6 °F /  14.8 °C 29.72 in /  1006.3 hPa NE 0.2 mph /  0.3 km/h 1.2 mph /  1.9 km/h 97 % 0.00 in /  0 mm
06:19 59.6 °F /  15.3 °C 58.7 °F /  14.8 °C 29.72 in /  1006.3 hPa NE 1.4 mph /  2.3 km/h 3.5 mph /  5.6 km/h 97 % 0.00 in /  0 mm
06:25 59.7 °F /  15.4 °C 58.8 °F /  14.9 °C 29.72 in /  1006.3 hPa NNE 0.6 mph /  1 km/h 2.3 mph /  3.7 km/h 97 % 0.00 in /  0 mm
06:30 59.8 °F /  15.4 °C 58.9 °F /  14.9 °C 29.72 in /  1006.3 hPa ENE 0.7 mph /  1.1 km/h 2.3 mph /  3.7 km/h 97 % 0.00 in /  0 mm
06:35 59.8 °F /  15.4 °C 58.9 °F /  14.9 °C 29.72 in /  1006.3 hPa NE 1.3 mph /  2.1 km/h 2.3 mph /  3.7 km/h 97 % 0.00 in /  0 mm
06:40 59.8 °F /  15.4 °C 58.9 °F /  14.9 °C 29.72 in /  1006.3 hPa ENE 2.1 mph /  3.4 km/h 4.6 mph /  7.4 km/h 97 % 0.00 in /  0 mm
06:45 59.8 °F /  15.4 °C 58.9 °F /  14.9 °C 29.72 in /  1006.3 hPa ENE 2.5 mph /  4 km/h 4.6 mph /  7.4 km/h 97 % 0.00 in /  0 mm
06:50 59.8 °F /  15.4 °C 58.9 °F /  14.9 °C 29.72 in /  1006.3 hPa ENE 2.2 mph /  3.5 km/h 4.6 mph /  7.4 km/h 97 % 0.00 in /  0 mm
06:55 59.7 °F /  15.4 °C 58.8 °F /  14.9 °C 29.72 in /  1006.3 hPa ENE 0.4 mph /  0.6 km/h 3.5 mph /  5.6 km/h 97 % 0.00 in /  0 mm
07:00 59.7 °F /  15.4 °C 58.8 °F /  14.9 °C 29.72 in /  1006.3 hPa ENE 0.8 mph /  1.3 km/h 3.5 mph /  5.6 km/h 97 % 0.00 in /  0 mm
07:05 59.8 °F /  15.4 °C 58.9 °F /  14.9 °C 29.72 in /  1006.3 hPa NE 0.2 mph /  0.3 km/h 1.2 mph /  1.9 km/h 97 % 0.00 in /  0 mm
07:10 59.7 °F /  15.4 °C 58.8 °F /  14.9 °C 29.72 in /  1006.3 hPa Calm   1.2 mph /  1.9 km/h 97 % 0.00 in /  0 mm
07:15 59.7 °F /  15.4 °C 58.8 °F /  14.9 °C 29.72 in /  1006.3 hPa ENE 2.1 mph /  3.4 km/h 3.5 mph /  5.6 km/h 97 % 0.00 in /  0 mm
07:20 59.7 °F /  15.4 °C 58.8 °F /  14.9 °C 29.72 in /  1006.3 hPa East 0.9 mph /  1.4 km/h 3.5 mph /  5.6 km/h 97 % 0.00 in /  0 mm
07:25 59.7 °F /  15.4 °C 58.8 °F /  14.9 °C 29.73 in /  1006.7 hPa ENE 1.8 mph /  2.9 km/h 4.0 mph /  6.4 km/h 97 % 0.00 in /  0 mm
07:30 59.6 °F /  15.3 °C 58.7 °F /  14.8 °C 29.72 in /  1006.3 hPa ENE 1.6 mph /  2.6 km/h 3.5 mph /  5.6 km/h 97 % 0.00 in /  0 mm
07:35 59.6 °F /  15.3 °C 58.7 °F /  14.8 °C 29.73 in /  1006.7 hPa NE 2.4 mph /  3.9 km/h 4.6 mph /  7.4 km/h 97 % 0.00 in /  0 mm
07:40 59.6 °F /  15.3 °C 58.7 °F /  14.8 °C 29.73 in /  1006.7 hPa NNE 2.7 mph /  4.3 km/h 6.9 mph /  11.1 km/h 97 % 0.00 in /  0 mm
07:45 59.6 °F /  15.3 °C 58.7 °F /  14.8 °C 29.73 in /  1006.7 hPa NE 2.8 mph /  4.5 km/h 4.6 mph /  7.4 km/h 97 % 0.00 in /  0 mm
07:50 59.6 °F /  15.3 °C 58.7 °F /  14.8 °C 29.73 in /  1006.7 hPa NE 4.0 mph /  6.4 km/h 6.9 mph /  11.1 km/h 97 % 0.00 in /  0 mm
07:55 59.5 °F /  15.3 °C 58.6 °F /  14.8 °C 29.73 in /  1006.7 hPa ENE 1.7 mph /  2.7 km/h 3.5 mph /  5.6 km/h 97 % 0.00 in /  0 mm
07:58 59.6 °F /  15.3 °C 58.7 °F /  14.8 °C 29.73 in /  1006.7 hPa ENE 4.2 mph /  6.8 km/h 6.9 mph /  11.1 km/h 97 % 0.00 in /  0 mm
08:03 59.4 °F /  15.2 °C 58.5 °F /  14.7 °C 29.73 in /  1006.7 hPa ENE 4.2 mph /  6.8 km/h 8.0 mph /  12.9 km/h 97 % 0.00 in /  0 mm
08:08 59.3 °F /  15.2 °C 58.4 °F /  14.7 °C 29.72 in /  1006.3 hPa ENE 5.7 mph /  9.2 km/h 11.0 mph /  17.7 km/h 97 % 0.00 in /  0 mm
08:13 59.2 °F /  15.1 °C 58.1 °F /  14.5 °C 29.73 in /  1006.7 hPa NE 2.8 mph /  4.5 km/h 7.0 mph /  11.3 km/h 96 % 0.00 in /  0 mm
08:18 59.3 °F /  15.2 °C 58.4 °F /  14.7 °C 29.73 in /  1006.7 hPa ENE 2.6 mph /  4.2 km/h 4.6 mph /  7.4 km/h 97 % 0.00 in /  0 mm
08:23 59.3 °F /  15.2 °C 58.4 °F /  14.7 °C 29.73 in /  1006.7 hPa NE 2.1 mph /  3.4 km/h 4.0 mph /  6.4 km/h 97 % 0.00 in /  0 mm
08:28 59.2 °F /  15.1 °C 58.1 °F /  14.5 °C 29.73 in /  1006.7 hPa ENE 2.5 mph /  4 km/h 6.9 mph /  11.1 km/h 96 % 0.00 in /  0 mm
08:33 59.3 °F /  15.2 °C 58.4 °F /  14.7 °C 29.73 in /  1006.7 hPa NE 2.2 mph /  3.5 km/h 2.3 mph /  3.7 km/h 97 % 0.00 in /  0 mm
08:38 59.3 °F /  15.2 °C 58.4 °F /  14.7 °C 29.73 in /  1006.7 hPa ENE 1.0 mph /  1.6 km/h 4.6 mph /  7.4 km/h 97 % 0.00 in /  0 mm
08:43 59.4 °F /  15.2 °C 58.5 °F /  14.7 °C 29.74 in /  1007 hPa Calm   1.2 mph /  1.9 km/h 97 % 0.00 in /  0 mm
08:49 59.3 °F /  15.2 °C 58.4 °F /  14.7 °C 29.75 in /  1007.3 hPa ENE 2.2 mph /  3.5 km/h 4.6 mph /  7.4 km/h 97 % 0.00 in /  0 mm
08:54 59.3 °F /  15.2 °C 58.4 °F /  14.7 °C 29.75 in /  1007.3 hPa NE 1.0 mph /  1.6 km/h 3.5 mph /  5.6 km/h 97 % 0.00 in /  0 mm
08:59 59.3 °F /  15.2 °C 58.4 °F /  14.7 °C 29.75 in /  1007.3 hPa ENE 2.5 mph /  4 km/h 8.1 mph /  13 km/h 97 % 0.00 in /  0 mm
09:04 59.3 °F /  15.2 °C 58.2 °F /  14.6 °C 29.75 in /  1007.3 hPa NE 2.2 mph /  3.5 km/h 6.9 mph /  11.1 km/h 96 % 0.00 in /  0 mm
09:09 59.3 °F /  15.2 °C 58.2 °F /  14.6 °C 29.74 in /  1007 hPa ENE 1.7 mph /  2.7 km/h 3.0 mph /  4.8 km/h 96 % 0.00 in /  0 mm
09:14 59.4 °F /  15.2 °C 58.5 °F /  14.7 °C 29.74 in /  1007 hPa ENE 2.4 mph /  3.9 km/h 4.6 mph /  7.4 km/h 97 % 0.00 in /  0 mm
09:19 59.4 °F /  15.2 °C 58.5 °F /  14.7 °C 29.75 in /  1007.3 hPa ENE 2.4 mph /  3.9 km/h 3.5 mph /  5.6 km/h 97 % 0.00 in /  0 mm
09:24 59.4 °F /  15.2 °C 58.3 °F /  14.6 °C 29.75 in /  1007.3 hPa Calm   1.2 mph /  1.9 km/h 96 % 0.00 in /  0 mm
09:29 59.6 °F /  15.3 °C 58.7 °F /  14.8 °C 29.75 in /  1007.3 hPa ENE 0.5 mph /  0.8 km/h 1.2 mph /  1.9 km/h 97 % 0.00 in /  0 mm
09:34 59.6 °F /  15.3 °C 58.5 °F /  14.7 °C 29.75 in /  1007.3 hPa ENE 0.8 mph /  1.3 km/h 2.3 mph /  3.7 km/h 96 % 0.00 in /  0 mm
09:39 59.7 °F /  15.4 °C 58.6 °F /  14.8 °C 29.75 in /  1007.3 hPa ENE 0.2 mph /  0.3 km/h 1.2 mph /  1.9 km/h 96 % 0.00 in /  0 mm
09:44 59.8 °F /  15.4 °C 58.7 °F /  14.8 °C 29.75 in /  1007.3 hPa NE 0.2 mph /  0.3 km/h 1.2 mph /  1.9 km/h 96 % 0.00 in /  0 mm
09:45 59.8 °F /  15.4 °C 58.7 °F /  14.8 °C 29.75 in /  1007.3 hPa Calm   1.2 mph /  1.9 km/h 96 % 0.00 in /  0 mm
09:50 60.0 °F /  15.6 °C 59.1 °F /  15.1 °C 29.75 in /  1007.3 hPa NE 0.6 mph /  1 km/h 2.3 mph /  3.7 km/h 97 % 0.00 in /  0 mm
09:55 60.2 °F /  15.7 °C 59.3 °F /  15.2 °C 29.75 in /  1007.3 hPa NE 0.3 mph /  0.5 km/h 1.2 mph /  1.9 km/h 97 % 0.00 in /  0 mm
10:00 60.3 °F /  15.7 °C 59.4 °F /  15.2 °C 29.75 in /  1007.3 hPa NE 0.2 mph /  0.3 km/h 1.2 mph /  1.9 km/h 97 % 0.00 in /  0 mm
10:05 60.4 °F /  15.8 °C 59.3 °F /  15.2 °C 29.75 in /  1007.3 hPa NE 0.1 mph /  0.2 km/h 1.2 mph /  1.9 km/h 96 % 0.00 in /  0 mm
10:10 60.5 °F /  15.8 °C 59.4 °F /  15.2 °C 29.75 in /  1007.3 hPa NE 0.4 mph /  0.6 km/h 1.2 mph /  1.9 km/h 96 % 0.00 in /  0 mm
10:15 60.7 °F /  15.9 °C 59.8 °F /  15.4 °C 29.75 in /  1007.3 hPa NE 0.5 mph /  0.8 km/h 1.2 mph /  1.9 km/h 97 % 0.00 in /  0 mm
10:20 60.9 °F /  16.1 °C 60.0 °F /  15.6 °C 29.75 in /  1007.3 hPa NE 0.2 mph /  0.3 km/h 1.2 mph /  1.9 km/h 97 % 0.00 in /  0 mm
10:25 61.1 °F /  16.2 °C 60.0 °F /  15.6 °C 29.75 in /  1007.3 hPa NE 0.3 mph /  0.5 km/h 1.2 mph /  1.9 km/h 96 % 0.00 in /  0 mm
10:30 61.3 °F /  16.3 °C 60.4 °F /  15.8 °C 29.75 in /  1007.3 hPa Calm   1.2 mph /  1.9 km/h 97 % 0.00 in /  0 mm
10:36 61.4 °F /  16.3 °C 60.2 °F /  15.7 °C 29.75 in /  1007.3 hPa Calm   2.0 mph /  3.2 km/h 96 % 0.00 in /  0 mm
10:41 61.5 °F /  16.4 °C 60.3 °F /  15.7 °C 29.75 in /  1007.3 hPa ENE 1.0 mph /  1.6 km/h 4.0 mph /  6.4 km/h 96 % 0.00 in /  0 mm
10:46 61.4 °F /  16.3 °C 60.0 °F /  15.6 °C 29.75 in /  1007.3 hPa Calm   5.0 mph /  8 km/h 95 % 0.00 in /  0 mm
10:51 61.5 °F /  16.4 °C 60.0 °F /  15.6 °C 29.75 in /  1007.3 hPa NE 2.0 mph /  3.2 km/h 4.0 mph /  6.4 km/h 95 % 0.00 in /  0 mm
10:56 61.5 °F /  16.4 °C 60.0 °F /  15.6 °C 29.75 in /  1007.3 hPa ENE 1.0 mph /  1.6 km/h 4.0 mph /  6.4 km/h 95 % 0.00 in /  0 mm
11:01 61.5 °F /  16.4 °C 60.1 °F /  15.6 °C 29.75 in /  1007.3 hPa NE 3.1 mph /  5 km/h 5.8 mph /  9.3 km/h 95 % 0.00 in /  0 mm
11:06 61.6 °F /  16.4 °C 60.2 °F /  15.7 °C 29.75 in /  1007.3 hPa ENE 2.7 mph /  4.3 km/h 5.0 mph /  8 km/h 95 % 0.00 in /  0 mm
11:11 61.5 °F /  16.4 °C 59.8 °F /  15.4 °C 29.75 in /  1007.3 hPa ENE 1.0 mph /  1.6 km/h 5.0 mph /  8 km/h 94 % 0.00 in /  0 mm
11:13 61.4 °F /  16.3 °C 59.7 °F /  15.4 °C 29.75 in /  1007.3 hPa ENE 3.0 mph /  4.8 km/h 4.6 mph /  7.4 km/h 94 % 0.00 in /  0 mm
11:18 61.4 °F /  16.3 °C 59.7 °F /  15.4 °C 29.75 in /  1007.3 hPa NE 1.8 mph /  2.9 km/h 3.5 mph /  5.6 km/h 94 % 0.00 in /  0 mm
11:23 61.3 °F /  16.3 °C 59.6 °F /  15.3 °C 29.75 in /  1007.3 hPa ENE 0.6 mph /  1 km/h 3.5 mph /  5.6 km/h 94 % 0.00 in /  0 mm
11:28 61.2 °F /  16.2 °C 59.5 °F /  15.3 °C 29.75 in /  1007.3 hPa ENE 2.1 mph /  3.4 km/h 4.0 mph /  6.4 km/h 94 % 0.00 in /  0 mm
11:33 61.1 °F /  16.2 °C 59.4 °F /  15.2 °C 29.75 in /  1007.3 hPa ENE 0.7 mph /  1.1 km/h 2.3 mph /  3.7 km/h 94 % 0.00 in /  0 mm
11:39 61.2 °F /  16.2 °C 59.5 °F /  15.3 °C 29.75 in /  1007.3 hPa ENE 1.0 mph /  1.6 km/h 2.3 mph /  3.7 km/h 94 % 0.00 in /  0 mm
11:44 61.2 °F /  16.2 °C 59.5 °F /  15.3 °C 29.75 in /  1007.3 hPa ENE 2.6 mph /  4.2 km/h 4.0 mph /  6.4 km/h 94 % 0.00 in /  0 mm
11:49 61.2 °F /  16.2 °C 59.5 °F /  15.3 °C 29.75 in /  1007.3 hPa NE 2.8 mph /  4.5 km/h 5.8 mph /  9.3 km/h 94 % 0.00 in /  0 mm
11:54 61.2 °F /  16.2 °C 59.5 °F /  15.3 °C 29.75 in /  1007.3 hPa ENE 2.8 mph /  4.5 km/h 4.6 mph /  7.4 km/h 94 % 0.00 in /  0 mm
11:59 61.2 °F /  16.2 °C 59.5 °F /  15.3 °C 29.75 in /  1007.3 hPa ENE 1.6 mph /  2.6 km/h 3.5 mph /  5.6 km/h 94 % 0.00 in /  0 mm
12:04 61.3 °F /  16.3 °C 59.6 °F /  15.3 °C 29.75 in /  1007.3 hPa ENE 3.8 mph /  6.1 km/h 8.1 mph /  13 km/h 94 % 0.00 in /  0 mm
12:09 61.3 °F /  16.3 °C 59.6 °F /  15.3 °C 29.75 in /  1007.3 hPa ENE 1.2 mph /  1.9 km/h 2.3 mph /  3.7 km/h 94 % 0.00 in /  0 mm
12:14 61.4 °F /  16.3 °C 59.7 °F /  15.4 °C 29.75 in /  1007.3 hPa ENE 3.0 mph /  4.8 km/h 3.5 mph /  5.6 km/h 94 % 0.00 in /  0 mm
12:19 61.3 °F /  16.3 °C 59.6 °F /  15.3 °C 29.75 in /  1007.3 hPa ENE 0.9 mph /  1.4 km/h 3.5 mph /  5.6 km/h 94 % 0.00 in /  0 mm
12:24 61.3 °F /  16.3 °C 59.6 °F /  15.3 °C 29.75 in /  1007.3 hPa ENE 3.2 mph /  5.1 km/h 4.6 mph /  7.4 km/h 94 % 0.00 in /  0 mm
12:29 61.3 °F /  16.3 °C 59.6 °F /  15.3 °C 29.74 in /  1007 hPa ENE 3.1 mph /  5 km/h 8.1 mph /  13 km/h 94 % 0.00 in /  0 mm
12:34 61.4 °F /  16.3 °C 59.7 °F /  15.4 °C 29.75 in /  1007.3 hPa ENE 3.4 mph /  5.5 km/h 5.0 mph /  8 km/h 94 % 0.00 in /  0 mm
12:39 61.4 °F /  16.3 °C 59.7 °F /  15.4 °C 29.74 in /  1007 hPa ENE 1.2 mph /  1.9 km/h 3.5 mph /  5.6 km/h 94 % 0.00 in /  0 mm
12:44 61.4 °F /  16.3 °C 60.0 °F /  15.6 °C 29.74 in /  1007 hPa ENE 2.1 mph /  3.4 km/h 5.8 mph /  9.3 km/h 95 % 0.00 in /  0 mm
12:49 61.5 °F /  16.4 °C 59.8 °F /  15.4 °C 29.74 in /  1007 hPa ENE 2.1 mph /  3.4 km/h 3.5 mph /  5.6 km/h 94 % 0.00 in /  0 mm
12:54 61.5 °F /  16.4 °C 60.1 °F /  15.6 °C 29.74 in /  1007 hPa ENE 2.3 mph /  3.7 km/h 3.5 mph /  5.6 km/h 95 % 0.00 in /  0 mm
12:59 61.4 °F /  16.3 °C 59.7 °F /  15.4 °C 29.74 in /  1007 hPa ENE 3.3 mph /  5.3 km/h 6.9 mph /  11.1 km/h 94 % 0.00 in /  0 mm
13:04 61.4 °F /  16.3 °C 59.7 °F /  15.4 °C 29.74 in /  1007 hPa ENE 0.9 mph /  1.4 km/h 3.5 mph /  5.6 km/h 94 % 0.00 in /  0 mm
13:09 61.5 °F /  16.4 °C 60.1 °F /  15.6 °C 29.74 in /  1007 hPa ENE 1.3 mph /  2.1 km/h 2.3 mph /  3.7 km/h 95 % 0.00 in /  0 mm
13:14 61.5 °F /  16.4 °C 60.1 °F /  15.6 °C 29.74 in /  1007 hPa East 2.3 mph /  3.7 km/h 3.5 mph /  5.6 km/h 95 % 0.00 in /  0 mm
13:19 61.5 °F /  16.4 °C 60.1 °F /  15.6 °C 29.74 in /  1007 hPa ENE 1.6 mph /  2.6 km/h 3.5 mph /  5.6 km/h 95 % 0.00 in /  0 mm
13:24 61.6 °F /  16.4 °C 60.2 °F /  15.7 °C 29.74 in /  1007 hPa East 1.6 mph /  2.6 km/h 5.8 mph /  9.3 km/h 95 % 0.00 in /  0 mm
13:29 61.6 °F /  16.4 °C 60.2 °F /  15.7 °C 29.74 in /  1007 hPa NE 2.8 mph /  4.5 km/h 3.5 mph /  5.6 km/h 95 % 0.00 in /  0 mm
13:34 61.7 °F /  16.5 °C 60.3 °F /  15.7 °C 29.74 in /  1007 hPa ENE 1.1 mph /  1.8 km/h 3.5 mph /  5.6 km/h 95 % 0.00 in /  0 mm
13:39 61.8 °F /  16.6 °C 60.4 °F /  15.8 °C 29.73 in /  1006.7 hPa ENE 1.1 mph /  1.8 km/h 2.3 mph /  3.7 km/h 95 % 0.00 in /  0 mm
13:44 62.1 °F /  16.7 °C 60.7 °F /  15.9 °C 29.73 in /  1006.7 hPa ENE 1.1 mph /  1.8 km/h 3.5 mph /  5.6 km/h 95 % 0.00 in /  0 mm
13:49 62.3 °F /  16.8 °C 60.8 °F /  16 °C 29.73 in /  1006.7 hPa ENE 1.1 mph /  1.8 km/h 2.3 mph /  3.7 km/h 95 % 0.00 in /  0 mm
13:55 62.3 °F /  16.8 °C 60.8 °F /  16 °C 29.73 in /  1006.7 hPa ENE 2.4 mph /  3.9 km/h 3.5 mph /  5.6 km/h 95 % 0.00 in /  0 mm
14:00 62.5 °F /  16.9 °C 60.7 °F /  15.9 °C 29.73 in /  1006.7 hPa NE 1.2 mph /  1.9 km/h 2.3 mph /  3.7 km/h 94 % 0.00 in /  0 mm
14:05 62.7 °F /  17.1 °C 61.2 °F /  16.2 °C 29.73 in /  1006.7 hPa ENE 1.1 mph /  1.8 km/h 2.3 mph /  3.7 km/h 95 % 0.00 in /  0 mm
14:10 62.9 °F /  17.2 °C 61.1 °F /  16.2 °C 29.73 in /  1006.7 hPa ENE 1.4 mph /  2.3 km/h 2.3 mph /  3.7 km/h 94 % 0.00 in /  0 mm
14:11 62.9 °F /  17.2 °C 61.1 °F /  16.2 °C 29.73 in /  1006.7 hPa ENE 0.8 mph /  1.3 km/h 2.3 mph /  3.7 km/h 94 % 0.00 in /  0 mm
14:16 62.9 °F /  17.2 °C 61.1 °F /  16.2 °C 29.73 in /  1006.7 hPa ENE 1.4 mph /  2.3 km/h 3.5 mph /  5.6 km/h 94 % 0.00 in /  0 mm
14:21 63.0 °F /  17.2 °C 61.2 °F /  16.2 °C 29.73 in /  1006.7 hPa East 1.6 mph /  2.6 km/h 4.6 mph /  7.4 km/h 94 % 0.00 in /  0 mm
14:26 63.0 °F /  17.2 °C 60.9 °F /  16.1 °C 29.73 in /  1006.7 hPa ENE 1.8 mph /  2.9 km/h 2.3 mph /  3.7 km/h 93 % 0.00 in /  0 mm
14:31 62.9 °F /  17.2 °C 60.8 °F /  16 °C 29.73 in /  1006.7 hPa ENE 1.5 mph /  2.4 km/h 3.5 mph /  5.6 km/h 93 % 0.00 in /  0 mm
14:36 62.9 °F /  17.2 °C 60.8 °F /  16 °C 29.73 in /  1006.7 hPa ENE 1.9 mph /  3.1 km/h 4.0 mph /  6.4 km/h 93 % 0.00 in /  0 mm
14:41 62.8 °F /  17.1 °C 60.7 °F /  15.9 °C 29.72 in /  1006.3 hPa ENE 1.5 mph /  2.4 km/h 3.5 mph /  5.6 km/h 93 % 0.00 in /  0 mm
14:46 62.7 °F /  17.1 °C 60.6 °F /  15.9 °C 29.73 in /  1006.7 hPa ENE 1.0 mph /  1.6 km/h 3.0 mph /  4.8 km/h 93 % 0.00 in /  0 mm
14:52 62.8 °F /  17.1 °C 60.7 °F /  15.9 °C 29.73 in /  1006.7 hPa ENE 1.6 mph /  2.6 km/h 3.5 mph /  5.6 km/h 93 % 0.00 in /  0 mm
14:57 62.8 °F /  17.1 °C 60.7 °F /  15.9 °C 29.73 in /  1006.7 hPa ENE 3.3 mph /  5.3 km/h 6.9 mph /  11.1 km/h 93 % 0.00 in /  0 mm
15:02 62.7 °F /  17.1 °C 60.6 °F /  15.9 °C 29.73 in /  1006.7 hPa NE 2.9 mph /  4.7 km/h 7.0 mph /  11.3 km/h 93 % 0.00 in /  0 mm
15:07 62.7 °F /  17.1 °C 60.6 °F /  15.9 °C 29.73 in /  1006.7 hPa ENE 3.6 mph /  5.8 km/h 4.6 mph /  7.4 km/h 93 % 0.00 in /  0 mm
15:12 62.7 °F /  17.1 °C 60.6 °F /  15.9 °C 29.73 in /  1006.7 hPa ENE 1.8 mph /  2.9 km/h 3.5 mph /  5.6 km/h 93 % 0.00 in /  0 mm
15:17 62.7 °F /  17.1 °C 60.6 °F /  15.9 °C 29.73 in /  1006.7 hPa ENE 2.3 mph /  3.7 km/h 4.6 mph /  7.4 km/h 93 % 0.00 in /  0 mm
15:18 62.7 °F /  17.1 °C 60.6 °F /  15.9 °C 29.73 in /  1006.7 hPa ENE 2.1 mph /  3.4 km/h 4.6 mph /  7.4 km/h 93 % 0.00 in /  0 mm
15:23 62.7 °F /  17.1 °C 60.6 °F /  15.9 °C 29.73 in /  1006.7 hPa ENE 3.4 mph /  5.5 km/h 6.9 mph /  11.1 km/h 93 % 0.00 in /  0 mm
15:28 62.7 °F /  17.1 °C 60.6 °F /  15.9 °C 29.73 in /  1006.7 hPa ENE 1.3 mph /  2.1 km/h 3.5 mph /  5.6 km/h 93 % 0.00 in /  0 mm
15:33 62.6 °F /  17 °C 60.5 °F /  15.8 °C 29.73 in /  1006.7 hPa NE 2.5 mph /  4 km/h 6.9 mph /  11.1 km/h 93 % 0.00 in /  0 mm
15:38 62.5 °F /  16.9 °C 60.4 °F /  15.8 °C 29.72 in /  1006.3 hPa ENE 1.7 mph /  2.7 km/h 3.5 mph /  5.6 km/h 93 % 0.00 in /  0 mm
15:43 62.6 °F /  17 °C 60.5 °F /  15.8 °C 29.72 in /  1006.3 hPa NE 2.0 mph /  3.2 km/h 3.5 mph /  5.6 km/h 93 % 0.00 in /  0 mm
15:48 62.7 °F /  17.1 °C 60.9 °F /  16.1 °C 29.72 in /  1006.3 hPa ENE 0.6 mph /  1 km/h 2.3 mph /  3.7 km/h 94 % 0.00 in /  0 mm
15:53 62.7 °F /  17.1 °C 60.9 °F /  16.1 °C 29.72 in /  1006.3 hPa ENE 0.9 mph /  1.4 km/h 2.3 mph /  3.7 km/h 94 % 0.00 in /  0 mm
15:58 62.7 °F /  17.1 °C 60.9 °F /  16.1 °C 29.71 in /  1006 hPa East 1.2 mph /  1.9 km/h 2.3 mph /  3.7 km/h 94 % 0.00 in /  0 mm
16:03 62.8 °F /  17.1 °C 61.0 °F /  16.1 °C 29.72 in /  1006.3 hPa South 0.9 mph /  1.4 km/h 2.3 mph /  3.7 km/h 94 % 0.00 in /  0 mm
16:08 62.9 °F /  17.2 °C 61.1 °F /  16.2 °C 29.72 in /  1006.3 hPa ENE 0.6 mph /  1 km/h 2.3 mph /  3.7 km/h 94 % 0.00 in /  0 mm
16:13 62.9 °F /  17.2 °C 61.1 °F /  16.2 °C 29.72 in /  1006.3 hPa ENE 1.2 mph /  1.9 km/h 2.3 mph /  3.7 km/h 94 % 0.00 in /  0 mm
16:18 62.9 °F /  17.2 °C 61.1 °F /  16.2 °C 29.71 in /  1006 hPa ENE 0.9 mph /  1.4 km/h 2.3 mph /  3.7 km/h 94 % 0.00 in /  0 mm
16:23 63.0 °F /  17.2 °C 60.9 °F /  16.1 °C 29.72 in /  1006.3 hPa ENE 0.2 mph /  0.3 km/h 2.3 mph /  3.7 km/h 93 % 0.00 in /  0 mm
16:28 63.0 °F /  17.2 °C 61.2 °F /  16.2 °C 29.72 in /  1006.3 hPa ENE 0.4 mph /  0.6 km/h 1.2 mph /  1.9 km/h 94 % 0.00 in /  0 mm
16:33 62.9 °F /  17.2 °C 61.1 °F /  16.2 °C 29.72 in /  1006.3 hPa ENE 0.8 mph /  1.3 km/h 2.3 mph /  3.7 km/h 94 % 0.00 in /  0 mm
16:38 62.9 °F /  17.2 °C 61.1 °F /  16.2 °C 29.72 in /  1006.3 hPa ENE 0.6 mph /  1 km/h 2.3 mph /  3.7 km/h 94 % 0.00 in /  0 mm
16:43 62.8 °F /  17.1 °C 61.0 °F /  16.1 °C 29.72 in /  1006.3 hPa ENE 0.3 mph /  0.5 km/h 1.2 mph /  1.9 km/h 94 % 0.00 in /  0 mm
16:48 62.8 °F /  17.1 °C 61.0 °F /  16.1 °C 29.72 in /  1006.3 hPa ENE 1.1 mph /  1.8 km/h 2.0 mph /  3.2 km/h 94 % 0.00 in /  0 mm
16:53 62.7 °F /  17.1 °C 60.9 °F /  16.1 °C 29.72 in /  1006.3 hPa ENE 1.1 mph /  1.8 km/h 2.3 mph /  3.7 km/h 94 % 0.00 in /  0 mm
16:58 62.7 °F /  17.1 °C 60.9 °F /  16.1 °C 29.72 in /  1006.3 hPa ENE 0.2 mph /  0.3 km/h 1.2 mph /  1.9 km/h 94 % 0.00 in /  0 mm
17:03 62.6 °F /  17 °C 60.8 °F /  16 °C 29.72 in /  1006.3 hPa ENE 0.5 mph /  0.8 km/h 2.0 mph /  3.2 km/h 94 % 0.00 in /  0 mm
17:08 62.6 °F /  17 °C 60.8 °F /  16 °C 29.72 in /  1006.3 hPa East 1.0 mph /  1.6 km/h 2.3 mph /  3.7 km/h 94 % 0.00 in /  0 mm
17:13 62.5 °F /  16.9 °C 60.7 °F /  15.9 °C 29.72 in /  1006.3 hPa East 1.3 mph /  2.1 km/h 2.3 mph /  3.7 km/h 94 % 0.00 in /  0 mm
17:18 62.5 °F /  16.9 °C 61.0 °F /  16.1 °C 29.72 in /  1006.3 hPa ESE 1.7 mph /  2.7 km/h 3.0 mph /  4.8 km/h 95 % 0.00 in /  0 mm
17:23 62.5 °F /  16.9 °C 61.0 °F /  16.1 °C 29.71 in /  1006 hPa ESE 1.2 mph /  1.9 km/h 2.3 mph /  3.7 km/h 95 % 0.00 in /  0 mm
17:28 62.5 °F /  16.9 °C 61.0 °F /  16.1 °C 29.72 in /  1006.3 hPa ESE 1.1 mph /  1.8 km/h 3.5 mph /  5.6 km/h 95 % 0.00 in /  0 mm
17:33 62.5 °F /  16.9 °C 61.0 °F /  16.1 °C 29.71 in /  1006 hPa ESE 1.8 mph /  2.9 km/h 3.5 mph /  5.6 km/h 95 % 0.00 in /  0 mm
17:38 62.5 °F /  16.9 °C 61.0 °F /  16.1 °C 29.71 in /  1006 hPa ESE 1.6 mph /  2.6 km/h 2.3 mph /  3.7 km/h 95 % 0.00 in /  0 mm
17:43 62.4 °F /  16.9 °C 60.9 °F /  16.1 °C 29.71 in /  1006 hPa East 2.0 mph /  3.2 km/h 3.5 mph /  5.6 km/h 95 % 0.00 in /  0 mm
17:48 62.4 °F /  16.9 °C 60.9 °F /  16.1 °C 29.71 in /  1006 hPa East 1.5 mph /  2.4 km/h 3.5 mph /  5.6 km/h 95 % 0.00 in /  0 mm
17:53 62.3 °F /  16.8 °C 60.8 °F /  16 °C 29.70 in /  1005.6 hPa East 1.9 mph /  3.1 km/h 3.5 mph /  5.6 km/h 95 % 0.00 in /  0 mm
17:58 62.3 °F /  16.8 °C 60.8 °F /  16 °C 29.70 in /  1005.6 hPa ESE 1.1 mph /  1.8 km/h 3.5 mph /  5.6 km/h 95 % 0.00 in /  0 mm
18:03 62.3 °F /  16.8 °C 60.8 °F /  16 °C 29.70 in /  1005.6 hPa ESE 1.0 mph /  1.6 km/h 2.3 mph /  3.7 km/h 95 % 0.00 in /  0 mm
18:08 62.2 °F /  16.8 °C 60.8 °F /  16 °C 29.70 in /  1005.6 hPa ESE 0.6 mph /  1 km/h 2.0 mph /  3.2 km/h 95 % 0.00 in /  0 mm
18:13 62.3 °F /  16.8 °C 60.8 °F /  16 °C 29.70 in /  1005.6 hPa ESE 1.0 mph /  1.6 km/h 2.3 mph /  3.7 km/h 95 % 0.00 in /  0 mm
18:18 62.2 °F /  16.8 °C 60.8 °F /  16 °C 29.70 in /  1005.6 hPa ESE 0.6 mph /  1 km/h 2.3 mph /  3.7 km/h 95 % 0.00 in /  0 mm
18:23 62.2 °F /  16.8 °C 60.8 °F /  16 °C 29.71 in /  1006 hPa ESE 0.7 mph /  1.1 km/h 2.3 mph /  3.7 km/h 95 % 0.00 in /  0 mm
18:28 62.1 °F /  16.7 °C 60.7 °F /  15.9 °C 29.71 in /  1006 hPa East 1.2 mph /  1.9 km/h 3.5 mph /  5.6 km/h 95 % 0.00 in /  0 mm
18:34 62.0 °F /  16.7 °C 60.6 °F /  15.9 °C 29.72 in /  1006.3 hPa East 1.1 mph /  1.8 km/h 2.3 mph /  3.7 km/h 95 % 0.00 in /  0 mm
18:39 61.9 °F /  16.6 °C 60.5 °F /  15.8 °C 29.72 in /  1006.3 hPa East 1.1 mph /  1.8 km/h 3.0 mph /  4.8 km/h 95 % 0.00 in /  0 mm
18:44 61.9 °F /  16.6 °C 60.5 °F /  15.8 °C 29.72 in /  1006.3 hPa East 0.9 mph /  1.4 km/h 2.3 mph /  3.7 km/h 95 % 0.00 in /  0 mm
18:49 61.7 °F /  16.5 °C 60.3 °F /  15.7 °C 29.72 in /  1006.3 hPa East 1.5 mph /  2.4 km/h 2.3 mph /  3.7 km/h 95 % 0.00 in /  0 mm
18:54 61.6 °F /  16.4 °C 60.4 °F /  15.8 °C 29.72 in /  1006.3 hPa East 0.3 mph /  0.5 km/h 1.2 mph /  1.9 km/h 96 % 0.00 in /  0 mm
18:55 61.6 °F /  16.4 °C 60.4 °F /  15.8 °C 29.73 in /  1006.7 hPa East 0.5 mph /  0.8 km/h 1.2 mph /  1.9 km/h 96 % 0.00 in /  0 mm
19:00 61.5 °F /  16.4 °C 60.3 °F /  15.7 °C 29.72 in /  1006.3 hPa East 1.2 mph /  1.9 km/h 2.3 mph /  3.7 km/h 96 % 0.00 in /  0 mm
19:05 61.4 °F /  16.3 °C 60.2 °F /  15.7 °C 29.72 in /  1006.3 hPa East 1.4 mph /  2.3 km/h 2.3 mph /  3.7 km/h 96 % 0.00 in /  0 mm
19:10 61.4 °F /  16.3 °C 60.2 °F /  15.7 °C 29.72 in /  1006.3 hPa East 1.1 mph /  1.8 km/h 2.3 mph /  3.7 km/h 96 % 0.00 in /  0 mm
19:15 61.3 °F /  16.3 °C 60.2 °F /  15.7 °C 29.72 in /  1006.3 hPa East 1.6 mph /  2.6 km/h 2.3 mph /  3.7 km/h 96 % 0.00 in /  0 mm
19:21 61.3 °F /  16.3 °C 60.1 °F /  15.6 °C 29.73 in /  1006.7 hPa East 1.0 mph /  1.6 km/h 3.0 mph /  4.8 km/h 96 % 0.00 in /  0 mm
19:26 61.2 °F /  16.2 °C 60.1 °F /  15.6 °C 29.73 in /  1006.7 hPa ENE 1.0 mph /  1.6 km/h 2.0 mph /  3.2 km/h 96 % 0.00 in /  0 mm
19:31 61.2 °F /  16.2 °C 60.1 °F /  15.6 °C 29.73 in /  1006.7 hPa Calm   2.0 mph /  3.2 km/h 96 % 0.00 in /  0 mm
19:36 61.2 °F /  16.2 °C 60.1 °F /  15.6 °C 29.73 in /  1006.7 hPa Calm   2.0 mph /  3.2 km/h 96 % 0.00 in /  0 mm
19:41 61.1 °F /  16.2 °C 60.0 °F /  15.6 °C 29.72 in /  1006.3 hPa ENE 0.7 mph /  1.1 km/h 2.3 mph /  3.7 km/h 96 % 0.00 in /  0 mm
19:46 61.1 °F /  16.2 °C 60.0 °F /  15.6 °C 29.73 in /  1006.7 hPa ENE 1.3 mph /  2.1 km/h 3.5 mph /  5.6 km/h 96 % 0.00 in /  0 mm
19:51 61.0 °F /  16.1 °C 59.9 °F /  15.5 °C 29.73 in /  1006.7 hPa ENE 1.0 mph /  1.6 km/h 2.0 mph /  3.2 km/h 96 % 0.00 in /  0 mm
19:56 61.0 °F /  16.1 °C 59.9 °F /  15.5 °C 29.73 in /  1006.7 hPa ENE 1.0 mph /  1.6 km/h 2.0 mph /  3.2 km/h 96 % 0.00 in /  0 mm
20:01 60.9 °F /  16.1 °C 59.8 °F /  15.4 °C 29.72 in /  1006.3 hPa ENE 1.9 mph /  3.1 km/h 3.5 mph /  5.6 km/h 96 % 0.00 in /  0 mm
20:06 60.9 °F /  16.1 °C 59.8 °F /  15.4 °C 29.72 in /  1006.3 hPa ENE 1.4 mph /  2.3 km/h 2.3 mph /  3.7 km/h 96 % 0.00 in /  0 mm
20:11 60.8 °F /  16 °C 59.9 °F /  15.5 °C 29.72 in /  1006.3 hPa ENE 1.0 mph /  1.6 km/h 3.0 mph /  4.8 km/h 97 % 0.00 in /  0 mm
20:16 60.8 °F /  16 °C 59.9 °F /  15.5 °C 29.72 in /  1006.3 hPa ENE 1.0 mph /  1.6 km/h 3.0 mph /  4.8 km/h 97 % 0.00 in /  0 mm
20:21 60.8 °F /  16 °C 59.9 °F /  15.5 °C 29.71 in /  1006 hPa ENE 1.0 mph /  1.6 km/h 2.0 mph /  3.2 km/h 97 % 0.00 in /  0 mm
20:26 60.7 °F /  15.9 °C 59.8 °F /  15.4 °C 29.71 in /  1006 hPa ENE 1.0 mph /  1.6 km/h 3.0 mph /  4.8 km/h 97 % 0.00 in /  0 mm
20:31 60.7 °F /  15.9 °C 59.8 °F /  15.4 °C 29.71 in /  1006 hPa ENE 0.7 mph /  1.1 km/h 2.3 mph /  3.7 km/h 97 % 0.00 in /  0 mm
20:36 60.7 °F /  15.9 °C 59.8 °F /  15.4 °C 29.71 in /  1006 hPa Calm   1.2 mph /  1.9 km/h 97 % 0.00 in /  0 mm
20:41 60.7 °F /  15.9 °C 59.9 °F /  15.5 °C 29.71 in /  1006 hPa ENE 1.0 mph /  1.6 km/h 2.0 mph /  3.2 km/h 97 % 0.00 in /  0 mm
20:46 60.7 °F /  15.9 °C 59.9 °F /  15.5 °C 29.71 in /  1006 hPa Calm   2.0 mph /  3.2 km/h 97 % 0.00 in /  0 mm
20:51 60.8 °F /  16 °C 59.9 °F /  15.5 °C 29.71 in /  1006 hPa ENE 1.0 mph /  1.6 km/h 2.0 mph /  3.2 km/h 97 % 0.00 in /  0 mm
20:56 60.8 °F /  16 °C 59.9 °F /  15.5 °C 29.71 in /  1006 hPa ENE 1.0 mph /  1.6 km/h 2.0 mph /  3.2 km/h 97 % 0.00 in /  0 mm
21:01 60.8 °F /  16 °C 59.9 °F /  15.5 °C 29.72 in /  1006.3 hPa ENE 1.0 mph /  1.6 km/h 3.5 mph /  5.6 km/h 97 % 0.00 in /  0 mm
21:06 60.7 °F /  15.9 °C 59.8 °F /  15.4 °C 29.72 in /  1006.3 hPa ENE 3.7 mph /  6 km/h 6.9 mph /  11.1 km/h 97 % 0.00 in /  0 mm
21:11 60.5 °F /  15.8 °C 59.6 °F /  15.3 °C 29.72 in /  1006.3 hPa ENE 3.4 mph /  5.5 km/h 8.1 mph /  13 km/h 97 % 0.00 in /  0 mm
21:16 60.4 °F /  15.8 °C 59.5 °F /  15.3 °C 29.71 in /  1006 hPa East 3.8 mph /  6.1 km/h 8.1 mph /  13 km/h 97 % 0.00 in /  0 mm
21:21 60.3 °F /  15.7 °C 59.4 °F /  15.2 °C 29.71 in /  1006 hPa ENE 3.8 mph /  6.1 km/h 6.9 mph /  11.1 km/h 97 % 0.00 in /  0 mm
21:26 60.2 °F /  15.7 °C 59.3 °F /  15.2 °C 29.72 in /  1006.3 hPa NE 4.0 mph /  6.4 km/h 6.9 mph /  11.1 km/h 97 % 0.00 in /  0 mm
21:31 60.1 °F /  15.6 °C 59.2 °F /  15.1 °C 29.72 in /  1006.3 hPa ENE 5.1 mph /  8.2 km/h 8.1 mph /  13 km/h 97 % 0.00 in /  0 mm
21:39 60.1 °F /  15.6 °C 59.2 °F /  15.1 °C 29.71 in /  1006 hPa ENE 2.4 mph /  3.9 km/h 3.5 mph /  5.6 km/h 97 % 0.00 in /  0 mm
21:44 60.1 °F /  15.6 °C 59.2 °F /  15.1 °C 29.71 in /  1006 hPa East 2.9 mph /  4.7 km/h 4.6 mph /  7.4 km/h 97 % 0.00 in /  0 mm
21:49 60.1 °F /  15.6 °C 59.2 °F /  15.1 °C 29.70 in /  1005.6 hPa East 3.7 mph /  6 km/h 4.6 mph /  7.4 km/h 97 % 0.00 in /  0 mm
21:54 60.0 °F /  15.6 °C 59.1 °F /  15.1 °C 29.70 in /  1005.6 hPa East 3.0 mph /  4.8 km/h 5.0 mph /  8 km/h 97 % 0.00 in /  0 mm
21:59 60.0 °F /  15.6 °C 59.1 °F /  15.1 °C 29.70 in /  1005.6 hPa East 4.2 mph /  6.8 km/h 5.8 mph /  9.3 km/h 97 % 0.00 in /  0 mm
22:04 59.8 °F /  15.4 °C 58.9 °F /  14.9 °C 29.70 in /  1005.6 hPa East 3.0 mph /  4.8 km/h 4.6 mph /  7.4 km/h 97 % 0.00 in /  0 mm
22:09 59.7 °F /  15.4 °C 58.8 °F /  14.9 °C 29.70 in /  1005.6 hPa East 2.8 mph /  4.5 km/h 3.5 mph /  5.6 km/h 97 % 0.00 in /  0 mm
22:14 59.7 °F /  15.4 °C 58.8 °F /  14.9 °C 29.71 in /  1006 hPa East 3.2 mph /  5.1 km/h 4.6 mph /  7.4 km/h 97 % 0.00 in /  0 mm
22:19 59.6 °F /  15.3 °C 58.7 °F /  14.8 °C 29.71 in /  1006 hPa ENE 2.8 mph /  4.5 km/h 3.5 mph /  5.6 km/h 97 % 0.00 in /  0 mm
22:24 59.6 °F /  15.3 °C 58.7 °F /  14.8 °C 29.72 in /  1006.3 hPa ENE 2.9 mph /  4.7 km/h 6.9 mph /  11.1 km/h 97 % 0.00 in /  0 mm
22:29 59.5 °F /  15.3 °C 58.6 °F /  14.8 °C 29.71 in /  1006 hPa ENE 3.4 mph /  5.5 km/h 4.6 mph /  7.4 km/h 97 % 0.00 in /  0 mm
22:34 59.4 °F /  15.2 °C 58.5 °F /  14.7 °C 29.71 in /  1006 hPa ENE 3.2 mph /  5.1 km/h 3.5 mph /  5.6 km/h 97 % 0.00 in /  0 mm
22:40 59.4 °F /  15.2 °C 58.5 °F /  14.7 °C 29.71 in /  1006 hPa East 2.8 mph /  4.5 km/h 4.6 mph /  7.4 km/h 97 % 0.00 in /  0 mm
22:45 59.4 °F /  15.2 °C 58.5 °F /  14.7 °C 29.70 in /  1005.6 hPa East 2.8 mph /  4.5 km/h 4.6 mph /  7.4 km/h 97 % 0.00 in /  0 mm
22:50 59.3 °F /  15.2 °C 58.4 °F /  14.7 °C 29.70 in /  1005.6 hPa East 2.8 mph /  4.5 km/h 4.6 mph /  7.4 km/h 97 % 0.00 in /  0 mm
22:55 59.3 °F /  15.2 °C 58.4 °F /  14.7 °C 29.71 in /  1006 hPa ENE 3.5 mph /  5.6 km/h 6.0 mph /  9.7 km/h 97 % 0.00 in /  0 mm
23:00 59.3 °F /  15.2 °C 58.4 °F /  14.7 °C 29.70 in /  1005.6 hPa East 2.8 mph /  4.5 km/h 3.5 mph /  5.6 km/h 97 % 0.00 in /  0 mm
23:05 59.3 °F /  15.2 °C 58.4 °F /  14.7 °C 29.70 in /  1005.6 hPa ENE 3.5 mph /  5.6 km/h 6.9 mph /  11.1 km/h 97 % 0.00 in /  0 mm
23:10 59.1 °F /  15.1 °C 58.2 °F /  14.6 °C 29.70 in /  1005.6 hPa ENE 2.4 mph /  3.9 km/h 4.0 mph /  6.4 km/h 97 % 0.00 in /  0 mm
23:15 58.9 °F /  14.9 °C 58.1 °F /  14.5 °C 29.71 in /  1006 hPa ENE 6.1 mph /  9.8 km/h 10.4 mph /  16.7 km/h 97 % 0.00 in /  0 mm
23:20 58.8 °F /  14.9 °C 58.0 °F /  14.4 °C 29.71 in /  1006 hPa ENE 5.7 mph /  9.2 km/h 8.1 mph /  13 km/h 97 % 0.00 in /  0 mm
23:25 58.6 °F /  14.8 °C 57.8 °F /  14.3 °C 29.72 in /  1006.3 hPa East 7.0 mph /  11.3 km/h 10.4 mph /  16.7 km/h 97 % 0.00 in /  0 mm
23:30 58.4 °F /  14.7 °C 57.6 °F /  14.2 °C 29.72 in /  1006.3 hPa NE 6.5 mph /  10.5 km/h 9.2 mph /  14.8 km/h 97 % 0.00 in /  0 mm
23:35 58.3 °F /  14.6 °C 57.5 °F /  14.2 °C 29.72 in /  1006.3 hPa ENE 5.8 mph /  9.3 km/h 8.1 mph /  13 km/h 97 % 0.00 in /  0 mm
23:40 58.3 °F /  14.6 °C 57.5 °F /  14.2 °C 29.72 in /  1006.3 hPa ENE 6.3 mph /  10.1 km/h 11.5 mph /  18.5 km/h 97 % 0.00 in /  0 mm
23:45 58.1 °F /  14.5 °C 57.3 °F /  14.1 °C 29.70 in /  1005.6 hPa ENE 5.6 mph /  9 km/h 10.4 mph /  16.7 km/h 97 % 0.00 in /  0 mm
23:50 57.9 °F /  14.4 °C 57.1 °F /  13.9 °C 29.71 in /  1006 hPa ENE 6.9 mph /  11.1 km/h 10.4 mph /  16.7 km/h 97 % 0.00 in /  0 mm
23:55 57.8 °F /  14.3 °C 57.0 °F /  13.9 °C 29.71 in /  1006 hPa NE 6.1 mph /  9.8 km/h 7.0 mph /  11.3 km/h 97 % 0.00 in /  0 mm
Crab Meadow Weather
Compliments of Weather Underground - 3 mb

Script developed by  Jim McMurry - jmcmurry@mwt.net Adapted for the template by  Wim van der Kuil - Leuven-Template.eu

Humidity: Humidity is the amount of water vapor in the air. The term "humidity" refers to relative humidity. Relative humidity is defined as the amount of water vapor in a sample of air compared to the maximum amount of water vapor the air can hold at any specific temperature in a form of 0 to 100%. Relative humidity is important in forecasting weather. Humidity indicates the likelihood of precipitation, dew, or fog. High humidity makes people feel hotter outside in the summer because it reduces the effectiveness of sweating to cool the body by preventing the evaporation of perspiration from the skin.